Location: Izdebno
(52.6670°N, 16.2170°E)
Time: 19:13:24
(UTC+01:00)

Transit 2A - Pass Details

Date: 05 February 2023
Orbit: 591 x 964 km, 66.7° (Epoch: 21 March)

Event Time Altitude Azimuth Distance (km) Brightness Sun altitude
Rises 23:11:36 0° 318° (NW) 3,397 9.9 -51.4°
Enters shadow 23:12:45 - 321° (NW) 2,994 9.6 -51.5°
Reaches altitude 10° 23:14:09 10° 326° (NW) 2,515 - -51.5°
Maximum altitude 23:19:41 40° 35° (NE) 1,334 - -51.8°
Drops below altitude 10° 23:25:32 10° 104° (ESE) 2,676 - -52.1°
Sets 23:28:20 0° 111° (ESE) 3,638 - -52.2°
